www.pogodaiklimat.ru

Погода и климат >> Архив погоды >> Норвегия >> Юввассу


ПОГОДА в Юввассу

  • Прогноз погоды в Юввассу
  • Монитор погоды в Юввассу

АРХИВ ПОГОДЫ в Юввассу

Время (UTC), дата Ветер
(напр.,м/с)
 
Видим.   Явления Облачность Т
(С)
Тd
(С)
f
(%)
Тe
(С)
Тes
(С)
Комфортность P
(гПа)
Po
(гПа)
Тmin
(С)
Tmax
(С)
R
(мм)
R24
(мм)
S
(см)
13 10.09 ЮВ 6-5
{7}
н/о н/о +3.9 0 0 1013.6 807.1
14 10.09 ЮВ 9-7
{13}
н/о н/о +4.8 0 0 1012.1 806.5
15 10.09 Ю 9-11
{12}
н/о н/о +4.6 -0 -0 1011.7 806.2
16 10.09 Ю 7-9
{9}
н/о н/о +4.2 0 0 1011.8 805.9
17 10.09 Ю 10-9
{12}
н/о н/о +4.6 -0 -0 1010.7 805.3
18 10.09 Ю 8-11
{13}
н/о н/о +4.9 +1 +1 1011.1 805.7 +2.2 +4.9
19 10.09 Ю 10-9
{13}
н/о н/о +4.0 -1 -1 1010.6 804.7
20 10.09 Ю 10-12
{13}
н/о н/о +4.3 -1 -1 1009.7 804.3
21 10.09 Ю 14-14
{19}
н/о н/о +4.5 -2 -2 1008.0 803.2
22 10.09 Ю 12-18
{18}
н/о н/о +4.6 -1 -1 1007.8 802.8
23 10.09 Ю 17-21
{22}
н/о н/о +3.7 -3 -3 1005.6 800.6
00 11.09 Ю 19-23
{24}
н/о н/о +4.9 -2 -2 1004.2 800.2
01 11.09 Ю 13-22
{22}
н/о н/о +4.3 -2 -2 1005.0 800.5
02 11.09 Ю 13-18
{18}
н/о н/о +4.2 -2 -2 1004.6 800.2
03 11.09 Ю 16-15
{21}
н/о н/о +3.9 -3 -3 1003.0 794.0
04 11.09 Ю 17-22
{24}
н/о н/о +3.6 -3 -3 1001.7 792.8
05 11.09 Ю 13-21
{21}
н/о н/о +4.0 -2 -2 1001.3 792.7
06 11.09 Ю 15-18
{24}
н/о н/о +3.6 -3 -3 1000.3 791.7 +3.3 +4.9
07 11.09 Ю 13-18
{18}
н/о н/о +3.5 -3 -3 999.9 791.3
08 11.09 Ю 10-18
{18}
н/о н/о +3.4 -2 -2 1000.2 791.5
09 11.09 Ю 13-25
{25}
н/о н/о +2.9 -3 -3 999.6 790.7
10 11.09 Ю 12-14
{21}
н/о н/о +3.4 -3 -3 998.6 790.2
11 11.09 ЮЗ 10-21
{21}
н/о н/о +3.5 -2 -2 999.1 790.7
12 11.09 ЮЗ 9-15
{25}
н/о н/о +2.9 -2 -2 999.3 790.4
13 11.09 ЮЗ 10-11
{17}
н/о н/о +3.4 -2 -2 999.1 790.6
14 11.09 ЮЗ 11-15
{19}
н/о н/о +3.1 -3 -3 998.9 790.2
15 11.09 ЮЗ 13-18
{19}
н/о н/о +3.4 -3 -3 997.9 789.7
16 11.09 ЮЗ 8-17
{21}
н/о н/о +3.2 -2 -2 998.9 790.3
17 11.09 З 7-16
{16}
н/о н/о +1.6 -3 -3 1000.7 790.7
18 11.09 ЮЗ 7-17
{21}
н/о н/о +1.9 -3 -3 1001.0 791.1 +1.2 +3.8
19 11.09 ЮЗ 9-16
{17}
н/о н/о +1.4 -4 -4 1001.7 791.3
20 11.09 ЮЗ 18-21
{26}
н/о н/о +1.1 -7 -7 1000.6 790.2
21 11.09 ЮЗ 8-28
{28}
н/о н/о +0.9 -5 -5 1002.6 791.7
22 11.09 ЮЗ 11-21
{22}
н/о н/о +0.4 -6 -6 1002.9 791.6
23 11.09 ЮЗ 15-24
{25}
н/о н/о +0.6 -7 -7 1003.0 791.8
00 12.09 ЮЗ 12-19
{28}
н/о н/о +0.6 -6 -6 1003.6 792.3
01 12.09 ЮЗ 10-24
{25}
н/о н/о +0.6 -6 -6 1004.4 792.9
02 12.09 ЮЗ 10-16
{20}
н/о н/о +0.2 -6 -6 1005.0 793.1
03 12.09 ЮЗ 13-20
{22}
н/о н/о -0.5 -8 -8 1005.7 793.2
04 12.09 ЮЗ 11-20
{23}
н/о н/о 0.0 -7 -7 1005.4 793.3
05 12.09 ЮЗ 10-18
{21}
н/о н/о -0.1 -7 -7 1006.1 793.8
06 12.09 ЮЗ 14-19
{27}
н/о н/о +0.2 -7 -7 1005.5 793.5 -0.6 +2.1
07 12.09 ЮЗ 9-19
{29}
н/о н/о +0.5 -6 -6 1006.0 794.1
08 12.09 ЮЗ 12-22
{27}
н/о н/о +1.0 -6 -6 1005.0 793.6
09 12.09 ЮЗ 18-25
{33}
н/о н/о +1.7 -6 -6 1004.4 793.7
10 12.09 ЮЗ 24-30
{35}
н/о н/о +1.3 -8 -8 1004.2 793.2
11 12.09 ЮЗ 15-32
{34}
н/о н/о +1.1 -6 -6 1006.9 795.2
12 12.09 ЮЗ 15-24
{35}
н/о н/о +1.5 -6 -6 1006.5 795.2
13 12.09 ЮЗ 13-26
{26}
н/о н/о +0.7 -6 -6 1008.1 800.7
14 12.09 ЮЗ 12-20
{24}
н/о н/о +0.2 -7 -7 1008.6 800.6
15 12.09 ЮЗ 11-26
{26}
н/о н/о -0.6 -8 -8 1009.5 800.9
16 12.09 ЮЗ 12-22
{24}
н/о н/о -0.5 -8 -8 1009.2 800.7
17 12.09 З 8-16
{16}
н/о н/о -0.5 -6 -6 1009.6 801.1
18 12.09 З 7-14
{26}
н/о н/о -0.8 -6 -6 1009.9 801.1 -0.9 +1.9
19 12.09 З 9-14
{14}
н/о н/о -1.8 -9 -9 1010.7 801.1
20 12.09 З 13-13
{18}
н/о н/о -2.4 -11 -11 1011.2 801.0
21 12.09 З 10-14
{15}
н/о н/о -3.0 -11 -11 1012.0 801.3
22 12.09 З 9-11
{16}
н/о н/о -2.4 -9 -9 1011.5 801.3
23 12.09 З 11-12
{14}
н/о н/о -2.7 -10 -10 1011.9 801.4
00 13.09 З 12-14
{18}
н/о н/о -2.8 -11 -11 1012.0 801.4
01 13.09 З 12-16
{17}
н/о н/о -3.0 -11 -11 1012.5 801.7
02 13.09 З 16-16
{20}
н/о н/о -3.5 -13 -13 1012.4 801.3
03 13.09 З 16-22
{24}
н/о н/о -3.7 -13 -13 1013.1 801.6
04 13.09 З 16-20
{20}
н/о н/о -3.5 -13 -13 1013.0 801.7
05 13.09 З 15-20
{22}
н/о н/о -3.9 -13 -13 1014.0 802.2
06 13.09 З 17-20
{24}
н/о н/о -3.5 -13 -13 1014.1 802.6 -4.0 -0.5
07 13.09 З 19-22
{24}
н/о н/о -3.6 -14 -14 1014.5 802.9
08 13.09 З 18-22
{22}
н/о н/о -3.4 -13 -13 1015.2 803.6
09 13.09 З 16-20
{22}
н/о н/о -3.1 -12 -12 1015.6 804.1
10 13.09 З 18 н/о н/о -3.0 1016.2 804.6
11 13.09 З 17 н/о н/о -2.8 1016.7 805.2
12 13.09 З 16
{25}
н/о н/о -3.1 1017.9 806.0
13 13.09 З 16 н/о н/о -2.7 1018.0 806.2
14 13.09 ЮЗ 11 н/о н/о -2.7 1018.5 806.6
15 13.09 З 14 н/о н/о -2.6 1018.1 806.4
16 13.09 ЮЗ 15 н/о н/о -3.0 1018.1 806.1
17 13.09 ЮЗ 13 н/о н/о -3.2 1018.7 806.5
18 13.09 З 18
{24}
н/о н/о -3.6 1019.2 806.6 -2.5
19 13.09 З 20 н/о н/о -3.6 1019.1 806.5
20 13.09 З 21 н/о н/о -3.8 1019.1 806.4
21 13.09 З 18 н/о н/о -3.6 1019.6 806.9
22 13.09 З 20 н/о н/о -3.9 1020.0 807.0
23 13.09 З 18 н/о н/о -4.0 1020.5 807.3
00 14.09 ЮЗ 16
{30}
н/о н/о -3.1 1020.1 807.6
01 14.09 З 19-24
{28}
н/о н/о -3.3 -13 -13 1020.3 807.6
02 14.09 З 19-27
{27}
н/о н/о -3.2 -13 -13 1020.6 808.0
03 14.09 ЮЗ 15 н/о н/о -3.0 1020.2 807.8
04 14.09 З 16-23
{26}
н/о н/о -3.2 -13 -13 1020.7 808.0
05 14.09 З 13-27
{27}
н/о н/о -3.1 -12 -12 1020.5 807.9
06 14.09 З 20
{30}
н/о н/о -3.3 1019.9 807.3 -4.1
07 14.09 ЮЗ 15 н/о н/о -2.9 -4.1 91 -14 -14 1019.6 807.4
08 14.09 З 16-23
{24}
н/о н/о -2.3 -11 -11 1019.1 807.4
09 14.09 ЮЗ 14-24
{27}
н/о н/о -1.9 -10 -10 1019.1 807.6
10 14.09 ЮЗ 10-22
{22}
н/о н/о -2.0 -9 -9 1019.2 807.6
11 14.09 ЮЗ 9-20
{20}
н/о н/о -2.0 -9 -9 1018.6 807.2
12 14.09 ЮЗ 12-12
{27}
н/о н/о -0.8 -8 -8 1016.3 806.1
13 14.09 ЮЗ 13-26
{26}
н/о н/о -0.6 -8 -8 1014.8 805.1
14 14.09 ЮЗ 11-26
{26}
н/о н/о -0.5 -7 -7 1012.9 803.7
15 14.09 ЮЗ 16-19
{23}
н/о н/о -0.1 -8 -8 1010.2 801.8
16 14.09 ЮЗ 17-22
{24}
н/о н/о -0.1 -8 -8 1008.0 800.1
17 14.09 ЮЗ 19-27
{34}
н/о н/о +0.2 -8 -8 1004.6 792.8
18 14.09 ЮЗ 17-32
{34}
н/о н/о +0.4 -8 -8 1002.9 791.6 -3.3 +0.6
19 14.09 ЮЗ 17-28
{32}
н/о н/о +0.2 -8 -8 1001.7 790.5
20 14.09 ЮЗ 16-31
{32}
н/о н/о -0.1 -8 -8 1000.3 789.2
21 14.09 ЮЗ 10-26
{26}
н/о н/о -0.6 -7 -7 1000.5 789.0
22 14.09 ЮЗ 15-20
{28}
н/о н/о -1.5 -10 -10 1000.1 788.1
23 14.09 ЮЗ 21-24
{33}
н/о н/о -1.5 -11 -11 997.5 786.0
00 15.09 ЮЗ 20-22
{35}
н/о н/о -2.1 -12 -12 996.5 784.8
01 15.09 ЮЗ 19-29
{31}
н/о н/о -2.6 -12 -12 996.2 784.2
02 15.09 ЮЗ 12-29
{29}
н/о н/о -3.1 -11 -11 995.8 783.6
03 15.09 ЮЗ 15-24
{29}
н/о н/о -3.7 -13 -13 995.5 782.9
04 15.09 ЮЗ 17-20
{31}
н/о н/о -4.1 -14 -14 993.9 781.4
05 15.09 ЮЗ 16-31
{34}
н/о н/о -4.0 -14 -14 993.1 780.8
06 15.09 ЮЗ 19-30
{35}
н/о н/о -3.3 -13 -13 990.9 779.6 -4.2 +0.7
07 15.09 ЮЗ 20-35
{35}
н/о н/о -3.3 -14 -14 990.3 779.1
08 15.09 ЮЗ 22-37
{44}
н/о н/о -2.7 -13 -13 988.7 778.3
09 15.09 ЮЗ 19-32
{38}
н/о н/о -2.1 -12 -12 989.7 779.5
10 15.09 ЮЗ 14-36
{36}
н/о н/о -1.9 -10 -10 989.2 779.2
11 15.09 ЮЗ 16-24
{31}
н/о н/о -1.5 -10 -10 989.6 779.8
12 15.09 З 21-27
{44}
н/о н/о -1.8 -12 -12 989.6 779.6
13 15.09 ЮЗ 20-34
{34}
н/о н/о -1.8 -11 -11 990.1 780.0
14 15.09 З 21-30
{30}
н/о н/о -2.3 -12 -12 991.7 780.9
15 15.09 З 20-28
{30}
н/о н/о -1.8 -11 -11 991.5 781.1
16 15.09 З 20-25
{26}
н/о н/о -1.9 -12 -12 992.4 781.7
17 15.09 З 22-27
{30}
н/о н/о -2.1 -12 -12 993.1 782.1
18 15.09 З 21-26
{34}
н/о н/о -2.2 -12 -12 995.1 783.6 -3.6 -1.2
19 15.09 З 18-24
{26}
н/о н/о -2.4 -12 -12 997.0 785.0
20 15.09 З 19-22
{23}
н/о н/о -2.5 -12 -12 998.1 785.8
21 15.09 З 25-25
{30}
н/о н/о -3.0 -14 -14 997.5 785.0
22 15.09 З 26-29
{31}
н/о н/о -3.8 -15 -15 998.3 785.0
23 15.09 З 23-31
{33}
н/о н/о -5.1 -17 -17 1001.9 787.0
00 16.09 З 19-30
{33}
н/о н/о -5.5 -17 -17 1003.9 788.2
01 16.09 З 19-22
{25}
н/о н/о -5.5 -17 -17 1004.4 788.6
02 16.09 З 18-21
{22}
н/о н/о -5.7 -17 -17 1005.5 789.4
03 16.09 З 24-22
{27}
н/о н/о -5.1 -17 -17 1003.1 787.9
04 16.09 З 20-27
{27}
н/о н/о -5.5 -17 -17 1004.6 788.8
05 16.09 З 18-26
{26}
н/о н/о -5.9 -17 -17 1005.9 789.5
06 16.09 З 15-20
{27}
н/о н/о -6.0 -16 -16 1006.7 790.1 -6.1 -2.2
07 16.09 З 17-18
{21}
н/о н/о -6.0 -17 -17 1007.0 790.3
08 16.09 З 13-21
{21}
н/о н/о -5.9 -16 -16 1008.0 791.2
09 16.09 З 17-17
{20}
н/о н/о -5.3 -16 -16 1007.3 791.1
10 16.09 З 15-19
{19}
н/о н/о -4.9 -15 -15 1007.5 791.5
11 16.09 З 13-18
{18}
н/о н/о -4.1 -13 -13 1007.0 791.7
12 16.09 З 15-17
{21}
н/о н/о -4.2 -14 -14 1006.7 791.4
13 16.09 З 15-19
{20}
н/о н/о -3.9 -13 -13 1006.1 791.1
14 16.09 З 13-20
{20}
н/о н/о -3.7 -12 -12 1005.8 791.0
15 16.09 З 15-17
{18}
н/о н/о -3.6 -13 -13 1005.3 790.7
16 16.09 З 13-17
{17}
н/о н/о -3.7 -12 -12 1004.9 790.3
17 16.09 ЮЗ 11-17
{17}
н/о н/о -4.8 -13 -13 1005.5 790.0
18 16.09 З 7-15
{20}
н/о н/о -4.9 -12 -12 1005.7 790.1 -6.1 -3.4
19 16.09 ЮЗ 7-9
{10}
н/о н/о -5.0 -12 -12 1005.3 789.7
20 16.09 З 8-9
{11}
н/о н/о -5.4 -13 -13 1005.0 789.2
21 16.09 З 7-10
{10}
н/о н/о -5.9 -13 -13 1005.0 788.8
22 16.09 З 9-12
{13}
н/о н/о -6.3 -15 -15 1004.9 788.5
23 16.09 З 4-12
{12}
н/о н/о -6.0 -11 -11 1004.5 788.4
00 17.09 З 9-5
{13}
н/о н/о -6.2 -14 -14 1003.5 787.4
01 17.09 З 9-10
{11}
н/о н/о -6.0 -14 -14 1003.5 787.6
02 17.09 З 11-13
{14}
н/о н/о -7.2 -17 -17 1004.0 787.1
03 17.09 З 5-12
{12}
н/о н/о -7.8 -14 -14 1004.8 787.3
04 17.09 З 7-7
{9}
н/о н/о -8.5 -17 -17 1005.7 787.5
05 17.09 З 6-8
{8}
н/о н/о -9.2 -17 -17 1006.3 787.5
06 17.09 СЗ 9-7
{14}
н/о н/о -8.0 -17 -17 1005.8 787.9 -9.3 -4.9
07 17.09 З 7-12
{12}
н/о н/о -7.6 -15 -15 1006.6 788.9
08 17.09 СЗ 8-8
{12}
н/о н/о -7.9 -16 -16 1007.9 789.7
09 17.09 СЗ 8-8
{10}
н/о н/о -7.3 -16 -16 1008.3 790.4
10 17.09 СЗ 7-10
{10}
н/о н/о -7.0 -15 -15 1009.0 791.2
11 17.09 СЗ 12-11
{14}
н/о н/о -5.6 -15 -15 1008.6 791.9
12 17.09 З 8-14
{14}
н/о н/о -4.9 -12 -12 1009.0 792.7

 

Местоположение метеостанции Юввассу (Норвегия): широта 61.68 долгота 8.37 высота над уровнем моря 1894 м.

В архиве по умолчанию представлена погода в Юввассу за последнюю неделю. Архивные данные за месяц целиком и за предыдущие месяцы, начиная с января 2011 года, Вы можете получить, выбрав интересующий диапазон дат из раскрывающегося списка и нажав кнопку "Ввод!".


*Определитесь, кто Вы:
робот инопланетянин человек

Внимание! Время в таблицах - всемирное. Для получения местного времени необходимо прибавить поправку, которая равна 1 ч.

Смотрите также архив погоды в соседних городах и на ближайших метеорологических станциях:

Погода в Сонгфельсхутте (Норвегия) (23 км)
Погода в Брате (Норвегия) (36 км)
Погода в Гротли (Норвегия) (53 км)
Погода в Бейтостолене (Норвегия) (56 км)
Погода в Скабу (Норвегия) (57 км)
Погода в Филефеле (Норвегия) (57 км)
Погода в Домбасе (Норвегия) (59 км)
Погода в Бьорли (Норвегия) (65 км)
Погода в Фокстугу (Норвегия) (68 км)
Погода в Локен и Волбу (Норвегия) (72 км)

Пояснения к столбцам:

Ветер - указаны скорость ветра в м/с - средняя за 10 мин, порывы в срок и между сроками (в фигурных скобках) и направление, откуда дует ветер: С - северный, СВ - северо-восточный, В - восточный, ЮВ - юго-восточный, Ю - южный, ЮЗ - юго-западный, З - западный, СЗ - северо-западный.
Видимость - горизонтальная дальность видимости в метрах или километрах. При видимости от 1 до 10 км при отсутствии осадков обычно наблюдается дымка, при ухудшении видимости до 1 км и менее - туман. В сухую погоду видимость может ухудшаться дымом, пылью или мглою.
Явления - указаны атмосферные явления, наблюдавшиеся в срок или в последний час перед сроком; фигурными скобками обозначены явления, наблюдавшиеся между сроками (за 1-3 часа до срока); квадратными скобками обозначены град или гололедные отложения с указанием их диаметра в мм.
Облачность - указаны через наклонную черту общая и нижняя облачность в баллах и высота нижней границы облаков в метрах; квадратными скобками обозначены формы облаков: Ci - перистые, Cs - перисто-слоистые, Cc - перисто-кучевые, Ac - высококучевые, As - высокослоистые, Sc - слоисто-кучевые, Ns - слоисто-дождевые, Cu - кучевые, Cb - кучево-дождевые. Подробнее классификацию облаков см. в Атласе облаков (PDF).
T - Температура воздуха - температура, измеренная на высоте 2 м над землей.
Td - Температура точки росы - температура, при понижении до которой содержащийся в воздухе водяной пар достигнет насыщения.
f - Относительная влажность воздуха - влажноcть воздуха, измеренная на высоте 2 м над землей.
Te - Эффективная температура - температура, которую ощущает одетый по сезону человек в тени. Характеристика душности погоды. При расчете учитывается влияние влажности воздуха и скорости ветра на теплоощущения человека.
Tes - Эффективная температура на солнце - температура, которую ощущает человек, с поправкой на солнечный нагрев. Характеристика знойности погоды. Зависит от высоты солнца над горизонтом, облачности и скорости ветра. Ночью, в пасмурную погоду, а также при ветре 12 м/с и более поправка равна нулю.
P - Атмосферное давление - приведенное к уровню моря атмосферное давление.
Po - Атмосферное давление - измеренное на уровне метеостанции атмосферное давление.
Tmin - Минимальная температура - минимум температуры воздуха на высоте 2 м над землей.
Tmax - Максимальная температура - максимум температуры воздуха на высоте 2 м над землей.
R - Количество осадков - Количество выпавших осадков за период времени, мм. При наведении курсора мыши на число - период времени, за который выпало указанное количество осадков.
R24 - Количество осадков - Количество выпавших осадков за 24 часа, мм.
S - Снежный покров - Высота снежного покрова, см. При наведении курсора мыши на число - состояние снежного покрова и степень покрытия местности в баллах.